• In Hungary
  • List of Countries
  • For 7 days
  • Water Temperature
  • Satellite Maps
  • Weather Map
  • News
  • Weather Widgets
  • user-avatar
    Login

    Hourly Weather El Paso

    Today, 24 June, Sunday

    Time Temperature Precipitation Wind Pressure Humidity
    00:00 +34°C° 0 mm 6 mps 661 mmHg 18%
    01:00 +33°C° 0 mm 6 mps 660 mmHg 19%
    02:00 +32°C° 0 mm 6 mps 660 mmHg 21%
    03:00 +30°C° 0 mm 6 mps 660 mmHg 23%
    04:00 +30°C° 0 mm 7 mps 660 mmHg 25%
    05:00 +29°C° 0 mm 7 mps 660 mmHg 28%
    06:00 +31°C° 0 mm 8 mps 661 mmHg 27%
    07:00 +32°C° 0 mm 8 mps 662 mmHg 26%
    08:00 +33°C° 0 mm 9 mps 662 mmHg 25%
    09:00 +34°C° 0 mm 9 mps 663 mmHg 22%
    10:00 +37°C° 0 mm 9 mps 663 mmHg 20%
    11:00 +38°C° 0 mm 9 mps 663 mmHg 17%
    12:00 +39°C° 0 mm 9 mps 663 mmHg 15%
    13:00 +40°C° 0 mm 9 mps 663 mmHg 13%
    14:00 +42°C° 0 mm 9 mps 663 mmHg 12%
    15:00 +42°C° 0 mm 9 mps 662 mmHg 11%
    16:00 +42°C° 0 mm 9 mps 662 mmHg 10%
    17:00 +40°C° 0 mm 9 mps 661 mmHg 10%
    18:00 +39°C° 0 mm 8 mps 661 mmHg 10%
    19:00 +38°C° 0 mm 7 mps 661 mmHg 11%
    20:00 +36°C° 0 mm 7 mps 661 mmHg 12%
    21:00 +35°C° 0 mm 7 mps 661 mmHg 12%
    22:00 +34°C° 0 mm 6 mps 661 mmHg 13%
    23:00 +33°C° 0 mm 6 mps 661 mmHg 14%

    Tomorrow, 25 June, Monday

    Time Temperature Precipitation Wind Pressure Humidity
    00:00 +33°C° 0 mm 6 mps 661 mmHg 15%
    01:00 +32°C° 0 mm 5 mps 661 mmHg 16%
    02:00 +30°C° 0 mm 5 mps 661 mmHg 17%
    03:00 +29°C° 0 mm 4 mps 661 mmHg 20%
    04:00 +28°C° 0 mm 4 mps 661 mmHg 23%
    05:00 +28°C° 0 mm 3 mps 662 mmHg 25%
    06:00 +29°C° 0 mm 3 mps 662 mmHg 26%
    07:00 +30°C° 0 mm 4 mps 663 mmHg 27%
    08:00 +32°C° 0 mm 4 mps 664 mmHg 27%
    09:00 +33°C° 0 mm 4 mps 664 mmHg 26%
    10:00 +34°C° 0 mm 4 mps 664 mmHg 24%
    11:00 +36°C° 0 mm 4 mps 664 mmHg 22%
    12:00 +37°C° 0 mm 3 mps 664 mmHg 20%
    13:00 +37°C° 0 mm 3 mps 664 mmHg 19%
    14:00 +38°C° 0 mm 3 mps 664 mmHg 18%
    15:00 +39°C° 0 mm 2 mps 663 mmHg 17%
    16:00 +39°C° 0 mm 2 mps 663 mmHg 16%
    17:00 +39°C° 0 mm 2 mps 663 mmHg 15%
    18:00 +38°C° 0 mm 2 mps 663 mmHg 16%
    19:00 +38°C° 0 mm 2 mps 663 mmHg 17%
    20:00 +37°C° 0 mm 3 mps 663 mmHg 18%
    21:00 +36°C° 0 mm 3 mps 663 mmHg 19%
    22:00 +35°C° 0 mm 3 mps 663 mmHg 20%
    23:00 +35°C° 0 mm 3 mps 663 mmHg 22%

    Day after tomorrow, 26 June, Tuesday

    Time Temperature Precipitation Wind Pressure Humidity
    00:00 +34°C° 0 mm 2 mps 663 mmHg 23%
    01:00 +32°C° 0 mm 2 mps 663 mmHg 25%
    02:00 +32°C° 0 mm 2 mps 662 mmHg 27%
    03:00 +31°C° 0 mm 2 mps 662 mmHg 29%
    04:00 +30°C° 0 mm 2 mps 662 mmHg 32%
    05:00 +30°C° 0 mm 2 mps 663 mmHg 34%
    06:00 +31°C° 0 mm 3 mps 663 mmHg 33%
    07:00 +33°C° 0 mm 3 mps 664 mmHg 31%
    08:00 +35°C° 0 mm 4 mps 665 mmHg 30%
    09:00 +36°C° 0 mm 3 mps 665 mmHg 27%
    10:00 +37°C° 0 mm 2 mps 665 mmHg 24%
    11:00 +38°C° 0 mm 2 mps 665 mmHg 21%
    12:00 +39°C° 0 mm 2 mps 665 mmHg 19%
    13:00 +39°C° 0 mm 2 mps 664 mmHg 17%
    14:00 +40°C° 0 mm 2 mps 664 mmHg 15%
    15:00 +40°C° 0 mm 2 mps 664 mmHg 15%
    16:00 +40°C° 0 mm 2 mps 663 mmHg 15%
    17:00 +40°C° 0 mm 2 mps 663 mmHg 15%
    18:00 +39°C° 0.2 mm 5 mps 663 mmHg 19%
    19:00 +38°C° 0.2 mm 7 mps 663 mmHg 22%
    20:00 +36°C° 0.2 mm 10 mps 663 mmHg 26%
    21:00 +35°C° 0.4 mm 9 mps 663 mmHg 25%
    22:00 +34°C° 0.4 mm 9 mps 664 mmHg 25%
    23:00 +34°C° 0.4 mm 8 mps 664 mmHg 25%

    27 June, Wednesday

    Time Temperature Precipitation Wind Pressure Humidity
    00:00 +34°C° 0 mm 7 mps 664 mmHg 24%
    01:00 +34°C° 0 mm 5 mps 664 mmHg 23%
    02:00 +34°C° 0 mm 3 mps 663 mmHg 23%
    03:00 +33°C° 0 mm 3 mps 663 mmHg 25%
    04:00 +31°C° 0 mm 2 mps 663 mmHg 27%
    05:00 +30°C° 0 mm 2 mps 663 mmHg 30%
    06:00 +31°C° 0 mm 2 mps 664 mmHg 30%
    07:00 +33°C° 0 mm 3 mps 664 mmHg 30%
    08:00 +34°C° 0 mm 3 mps 665 mmHg 30%
    09:00 +35°C° 0 mm 3 mps 665 mmHg 28%
    10:00 +36°C° 0 mm 2 mps 665 mmHg 25%
    11:00 +37°C° 0 mm 2 mps 665 mmHg 23%
    12:00 +38°C° 0 mm 2 mps 665 mmHg 20%
    13:00 +39°C° 0 mm 2 mps 664 mmHg 18%
    14:00 +40°C° 0 mm 2 mps 664 mmHg 15%
    15:00 +40°C° 0 mm 2 mps 664 mmHg 15%
    16:00 +40°C° 0 mm 2 mps 663 mmHg 14%
    17:00 +40°C° 0 mm 3 mps 663 mmHg 13%
    18:00 +40°C° 0 mm 3 mps 663 mmHg 13%
    19:00 +39°C° 0 mm 3 mps 663 mmHg 14%
    20:00 +38°C° 0 mm 4 mps 663 mmHg 14%
    21:00 +37°C° 0 mm 4 mps 663 mmHg 16%
    22:00 +37°C° 0 mm 4 mps 663 mmHg 18%
    23:00 +36°C° 0 mm 4 mps 663 mmHg 20%

    28 June, Thursday

    Time Temperature Precipitation Wind Pressure Humidity
    00:00 +35°C° 0 mm 5 mps 663 mmHg 23%
    01:00 +34°C° 0 mm 5 mps 663 mmHg 26%
    02:00 +34°C° 0 mm 5 mps 663 mmHg 30%
    03:00 +33°C° 0 mm 5 mps 663 mmHg 32%
    04:00 +32°C° 0 mm 4 mps 663 mmHg 33%
    05:00 +32°C° 0 mm 4 mps 663 mmHg 35%
    06:00 +33°C° 0 mm 5 mps 663 mmHg 33%
    07:00 +34°C° 0 mm 5 mps 663 mmHg 31%
    08:00 +35°C° 0 mm 6 mps 664 mmHg 30%
    09:00 +36°C° 0 mm 5 mps 664 mmHg 26%
    10:00 +37°C° 0 mm 5 mps 664 mmHg 22%
    11:00 +40°C° 0 mm 4 mps 664 mmHg 18%
    12:00 +40°C° 0 mm 4 mps 664 mmHg 17%
    13:00 +40°C° 0 mm 3 mps 663 mmHg 15%
    14:00 +40°C° 0 mm 3 mps 663 mmHg 14%
    15:00 +40°C° 0 mm 3 mps 662 mmHg 13%
    16:00 +42°C° 0 mm 3 mps 662 mmHg 12%
    17:00 +42°C° 0 mm 3 mps 662 mmHg 12%
    18:00 +40°C° 0 mm 3 mps 662 mmHg 13%
    19:00 +40°C° 0 mm 4 mps 662 mmHg 14%
    20:00 +38°C° 0 mm 4 mps 662 mmHg 15%
    21:00 +37°C° 0 mm 4 mps 662 mmHg 17%
    22:00 +36°C° 0 mm 3 mps 662 mmHg 19%
    23:00 +35°C° 0 mm 3 mps 662 mmHg 21%

    29 June, Friday

    Time Temperature Precipitation Wind Pressure Humidity
    00:00 +35°C° 0 mm 4 mps 662 mmHg 22%
    01:00 +34°C° 0 mm 4 mps 661 mmHg 24%
    02:00 +33°C° 0 mm 4 mps 661 mmHg 26%
    03:00 +33°C° 0 mm 4 mps 661 mmHg 26%
    04:00 +32°C° 0 mm 4 mps 661 mmHg 25%
    05:00 +30°C° 0 mm 4 mps 661 mmHg 25%
    06:00 +33°C° 0 mm 4 mps 662 mmHg 22%
    07:00 +34°C° 0 mm 5 mps 662 mmHg 19%
    08:00 +35°C° 0 mm 6 mps 663 mmHg 16%
    09:00 +36°C° 0 mm 6 mps 663 mmHg 14%
    10:00 +39°C° 0 mm 6 mps 663 mmHg 12%
    11:00 +40°C° 0 mm 5 mps 663 mmHg 11%
    12:00 +41°C° 0 mm 5 mps 662 mmHg 10%
    13:00 +41°C° 0 mm 5 mps 662 mmHg 10%
    14:00 +42°C° 0 mm 5 mps 662 mmHg 9%
    15:00 +42°C° 0 mm 5 mps 661 mmHg 9%
    16:00 +42°C° 0 mm 5 mps 661 mmHg 9%
    17:00 +42°C° 0 mm 5 mps 661 mmHg 9%
    18:00 +41°C° 0 mm 5 mps 660 mmHg 10%
    19:00 +40°C° 0 mm 4 mps 660 mmHg 11%
    20:00 +38°C° 0 mm 4 mps 660 mmHg 12%
    21:00 +37°C° 0 mm 4 mps 660 mmHg 13%
    22:00 +36°C° 0 mm 5 mps 661 mmHg 14%
    23:00 +36°C° 0 mm 5 mps 661 mmHg 16%
    Show more